Time,TemperatureF,DewpointF,PressureIn,WindDirection,WindDirectionDegrees,WindSpeedMPH,WindSpeedGustMPH,Humidity,HourlyPrecipIn,Conditions,Clouds,dailyrainin,SoftwareType,DateUTC
2013-05-09 00:03:00,53.4,46.0,30.11,SE,135,2.0,4.6,76,0.00,,,0.00,WUHU216HW,2013-05-09 07:03:00,
2013-05-09 00:08:00,53.4,46.0,30.11,SSW,203,1.7,6.0,76,0.00,,,0.00,WUHU216HW,2013-05-09 07:08:00,
2013-05-09 00:13:00,53.4,46.0,30.11,SSE,158,2.6,6.0,76,0.00,,,0.00,WUHU216HW,2013-05-09 07:13:00,
2013-05-09 00:19:00,53.4,46.4,30.12,South,180,0.0,2.6,77,0.00,,,0.00,WUHU216HW,2013-05-09 07:19:00,
2013-05-09 00:24:00,53.4,46.4,30.12,South,180,0.0,0.0,77,0.00,,,0.00,WUHU216HW,2013-05-09 07:24:00,
2013-05-09 00:29:00,53.4,46.4,30.12,SE,135,0.0,0.8,77,0.00,,,0.00,WUHU216HW,2013-05-09 07:29:00,
2013-05-09 00:34:00,53.4,46.4,30.12,SE,135,2.6,2.6,77,0.00,,,0.00,WUHU216HW,2013-05-09 07:34:00,
2013-05-09 00:39:00,53.4,46.4,30.12,SSW,203,0.0,2.6,77,0.00,,,0.00,WUHU216HW,2013-05-09 07:39:00,
2013-05-09 00:44:00,53.4,46.4,30.12,SSE,158,3.3,3.3,77,0.00,,,0.00,WUHU216HW,2013-05-09 07:44:00,
2013-05-09 00:49:00,53.4,46.4,30.11,SSE,158,2.0,3.3,77,0.00,,,0.00,WUHU216HW,2013-05-09 07:49:00,
2013-05-09 00:54:00,53.4,46.4,30.12,SSE,158,0.0,3.5,77,0.00,,,0.00,WUHU216HW,2013-05-09 07:54:00,
2013-05-09 00:59:00,53.4,46.7,30.11,SE,135,3.3,3.5,78,0.00,,,0.00,WUHU216HW,2013-05-09 07:59:00,
2013-05-09 01:05:00,53.4,46.7,30.11,South,180,3.5,4.2,78,0.00,,,0.00,WUHU216HW,2013-05-09 08:05:00,
2013-05-09 01:10:00,53.4,46.7,30.12,SSE,158,3.1,4.2,78,0.00,,,0.00,WUHU216HW,2013-05-09 08:10:00,
2013-05-09 01:15:00,53.4,46.7,30.12,SE,135,0.0,3.1,78,0.00,,,0.00,WUHU216HW,2013-05-09 08:15:00,
2013-05-09 01:20:00,53.4,46.7,30.12,SE,135,1.3,1.3,78,0.00,,,0.00,WUHU216HW,2013-05-09 08:20:00,
2013-05-09 01:25:00,53.4,46.7,30.12,SW,225,0.0,2.2,78,0.00,,,0.00,WUHU216HW,2013-05-09 08:25:00,
2013-05-09 01:30:00,53.4,46.7,30.12,SE,135,1.1,2.2,78,0.00,,,0.00,WUHU216HW,2013-05-09 08:30:00,
2013-05-09 01:35:00,53.4,46.7,30.11,SW,225,0.0,3.3,78,0.00,,,0.00,WUHU216HW,2013-05-09 08:35:00,
2013-05-09 01:40:00,53.4,46.7,30.11,South,180,0.0,3.3,78,0.00,,,0.00,WUHU216HW,2013-05-09 08:40:00,
2013-05-09 01:45:00,53.4,46.7,30.11,SSW,203,0.0,0.0,78,0.00,,,0.00,WUHU216HW,2013-05-09 08:45:00,
2013-05-09 01:50:00,53.4,46.7,30.11,SW,225,0.0,1.5,78,0.00,,,0.00,WUHU216HW,2013-05-09 08:50:00,
2013-05-09 01:56:00,53.4,46.7,30.11,SW,225,4.6,4.6,78,0.00,,,0.00,WUHU216HW,2013-05-09 08:56:00,
2013-05-09 02:01:00,53.4,46.7,30.11,SE,135,1.1,4.6,78,0.00,,,0.00,WUHU216HW,2013-05-09 09:01:00,
2013-05-09 02:06:00,53.4,46.7,30.11,SSW,203,0.0,4.6,78,0.00,,,0.00,WUHU216HW,2013-05-09 09:06:00,
2013-05-09 02:11:00,53.4,46.7,30.11,SSE,158,2.0,2.0,78,0.00,,,0.00,WUHU216HW,2013-05-09 09:11:00,
2013-05-09 02:16:00,53.4,46.7,30.10,SE,135,3.1,3.1,78,0.00,,,0.00,WUHU216HW,2013-05-09 09:16:00,
2013-05-09 02:21:00,53.4,46.7,30.10,SSE,158,3.3,3.3,78,0.00,,,0.00,WUHU216HW,2013-05-09 09:21:00,
2013-05-09 02:26:00,53.4,46.7,30.10,SE,135,1.1,3.3,78,0.00,,,0.00,WUHU216HW,2013-05-09 09:26:00,
2013-05-09 02:31:00,53.4,46.7,30.10,South,180,3.3,3.3,78,0.00,,,0.00,WUHU216HW,2013-05-09 09:31:00,
2013-05-09 02:36:00,53.2,46.5,30.10,SE,135,3.5,3.5,78,0.00,,,0.00,WUHU216HW,2013-05-09 09:36:00,
2013-05-09 02:41:00,53.2,46.5,30.10,SE,135,2.6,3.5,78,0.00,,,0.00,WUHU216HW,2013-05-09 09:41:00,
2013-05-09 02:47:00,53.2,46.5,30.10,South,180,1.3,3.5,78,0.00,,,0.00,WUHU216HW,2013-05-09 09:47:00,
2013-05-09 02:52:00,53.2,46.5,30.10,SE,135,2.4,2.6,78,0.00,,,0.00,WUHU216HW,2013-05-09 09:52:00,
2013-05-09 02:57:00,53.2,46.5,30.09,SW,225,0.0,2.6,78,0.00,,,0.00,WUHU216HW,2013-05-09 09:57:00,
2013-05-09 03:02:00,53.2,46.5,30.09,SSE,158,0.2,2.9,78,0.00,,,0.00,WUHU216HW,2013-05-09 10:02:00,
2013-05-09 03:07:00,53.2,46.5,30.10,SSE,158,2.4,4.9,78,0.00,,,0.00,WUHU216HW,2013-05-09 10:07:00,
2013-05-09 03:12:00,53.2,46.5,30.09,SW,225,0.0,4.9,78,0.00,,,0.00,WUHU216HW,2013-05-09 10:12:00,
2013-05-09 03:17:00,53.0,46.4,30.09,SE,135,0.8,3.3,78,0.00,,,0.00,WUHU216HW,2013-05-09 10:17:00,
2013-05-09 03:22:00,53.2,46.5,30.09,South,180,0.0,3.3,78,0.00,,,0.00,WUHU216HW,2013-05-09 10:22:00,
2013-05-09 03:27:00,53.2,46.5,30.09,SSW,203,3.3,3.3,78,0.00,,,0.00,WUHU216HW,2013-05-09 10:27:00,
2013-05-09 03:32:00,53.2,46.5,30.10,SSW,203,1.1,4.2,78,0.00,,,0.00,WUHU216HW,2013-05-09 10:32:00,
2013-05-09 03:37:00,53.2,46.5,30.09,SSW,203,0.0,4.2,78,0.00,,,0.00,WUHU216HW,2013-05-09 10:37:00,
2013-05-09 03:42:00,53.2,46.5,30.10,SSW,203,1.7,2.9,78,0.00,,,0.00,WUHU216HW,2013-05-09 10:42:00,
2013-05-09 03:48:00,53.4,46.7,30.10,SW,225,0.0,2.9,78,0.00,,,0.00,WUHU216HW,2013-05-09 10:48:00,
2013-05-09 03:53:00,53.4,46.7,30.09,SW,225,0.0,1.7,78,0.00,,,0.00,WUHU216HW,2013-05-09 10:53:00,
2013-05-09 03:58:00,53.2,46.5,30.09,SE,135,1.5,2.4,78,0.00,,,0.00,WUHU216HW,2013-05-09 10:58:00,
2013-05-09 04:03:00,53.2,46.5,30.09,SSE,158,0.0,2.4,78,0.00,,,0.00,WUHU216HW,2013-05-09 11:03:00,
2013-05-09 04:08:00,53.2,46.5,30.09,SE,135,0.0,3.1,78,0.00,,,0.00,WUHU216HW,2013-05-09 11:08:00,
2013-05-09 04:13:00,53.2,46.5,30.09,SSE,158,0.0,3.1,78,0.00,,,0.00,WUHU216HW,2013-05-09 11:13:00,
2013-05-09 04:18:00,53.2,46.5,30.09,South,180,0.0,2.4,78,0.00,,,0.00,WUHU216HW,2013-05-09 11:18:00,
2013-05-09 04:23:00,53.2,46.5,30.09,SE,135,0.0,1.1,78,0.00,,,0.00,WUHU216HW,2013-05-09 11:23:00,
2013-05-09 04:28:00,53.2,46.5,30.09,SE,135,0.0,1.3,78,0.00,,,0.00,WUHU216HW,2013-05-09 11:28:00,
2013-05-09 04:33:00,53.2,46.5,30.09,SSE,158,0.0,2.2,78,0.00,,,0.00,WUHU216HW,2013-05-09 11:33:00,
2013-05-09 04:38:00,53.2,46.5,30.09,SSE,158,0.0,2.2,78,0.00,,,0.00,WUHU216HW,2013-05-09 11:38:00,
2013-05-09 04:43:00,53.2,46.5,30.09,SE,135,0.6,2.4,78,0.00,,,0.00,WUHU216HW,2013-05-09 11:43:00,
2013-05-09 04:48:00,53.2,46.5,30.09,SSE,158,0.0,2.4,78,0.00,,,0.00,WUHU216HW,2013-05-09 11:48:00,
2013-05-09 04:54:00,53.2,46.5,30.09,SE,135,0.0,0.0,78,0.00,,,0.00,WUHU216HW,2013-05-09 11:54:00,
2013-05-09 04:59:00,53.2,46.5,30.09,SSE,158,0.0,0.0,78,0.00,,,0.00,WUHU216HW,2013-05-09 11:59:00,
2013-05-09 05:04:00,53.2,46.5,30.09,ESE,113,0.0,2.4,78,0.00,,,0.00,WUHU216HW,2013-05-09 12:04:00,
2013-05-09 05:09:00,53.2,46.5,30.09,SW,225,3.1,3.1,78,0.00,,,0.00,WUHU216HW,2013-05-09 12:09:00,
2013-05-09 05:14:00,53.2,46.5,30.09,SW,225,0.0,3.1,78,0.00,,,0.00,WUHU216HW,2013-05-09 12:14:00,
2013-05-09 05:19:00,53.2,46.5,30.08,SSE,158,0.0,0.2,78,0.00,,,0.00,WUHU216HW,2013-05-09 12:19:00,
2013-05-09 05:24:00,53.2,46.5,30.08,SSE,158,0.0,0.2,78,0.00,,,0.00,WUHU216HW,2013-05-09 12:24:00,
2013-05-09 05:29:00,53.2,46.9,30.08,SSE,158,1.7,1.7,79,0.00,,,0.00,WUHU216HW,2013-05-09 12:29:00,
2013-05-09 05:34:00,53.2,46.5,30.09,South,180,0.0,1.7,78,0.00,,,0.00,WUHU216HW,2013-05-09 12:34:00,
2013-05-09 05:39:00,53.2,46.5,30.09,SW,225,0.0,0.0,78,0.00,,,0.00,WUHU216HW,2013-05-09 12:39:00,
2013-05-09 05:44:00,53.2,46.5,30.09,SW,225,0.0,0.0,78,0.00,,,0.00,WUHU216HW,2013-05-09 12:44:00,
2013-05-09 05:49:00,53.4,46.7,30.09,SW,225,0.0,0.0,78,0.00,,,0.00,WUHU216HW,2013-05-09 12:49:00,
2013-05-09 05:55:00,53.4,46.7,30.09,SW,225,0.0,0.0,78,0.00,,,0.00,WUHU216HW,2013-05-09 12:55:00,
2013-05-09 06:00:00,53.4,46.7,30.09,SW,225,0.0,0.0,78,0.00,,,0.00,WUHU216HW,2013-05-09 13:00:00,
2013-05-09 06:05:00,53.4,46.7,30.09,SW,225,0.0,0.0,78,0.00,,,0.00,WUHU216HW,2013-05-09 13:05:00,
2013-05-09 06:10:00,53.4,46.7,30.09,SW,225,0.0,0.0,78,0.00,,,0.00,WUHU216HW,2013-05-09 13:10:00,
2013-05-09 06:15:00,53.6,46.9,30.09,SW,225,0.0,0.0,78,0.00,,,0.00,WUHU216HW,2013-05-09 13:15:00,
2013-05-09 06:20:00,53.7,46.7,30.09,SSE,158,0.0,0.0,77,0.00,,,0.00,WUHU216HW,2013-05-09 13:20:00,
2013-05-09 06:25:00,53.7,46.7,30.09,SW,225,0.0,0.0,77,0.00,,,0.00,WUHU216HW,2013-05-09 13:25:00,
2013-05-09 06:30:00,53.7,46.7,30.09,SSW,203,1.7,1.7,77,0.00,,,0.00,WUHU216HW,2013-05-09 13:30:00,
2013-05-09 06:35:00,53.7,46.7,30.09,SSW,203,0.0,2.0,77,0.00,,,0.00,WUHU216HW,2013-05-09 13:35:00,
2013-05-09 06:40:00,53.7,46.7,30.10,SE,135,0.6,2.0,77,0.00,,,0.00,WUHU216HW,2013-05-09 13:40:00,
2013-05-09 06:45:00,53.7,46.7,30.10,SSE,158,3.5,3.5,77,0.00,,,0.00,WUHU216HW,2013-05-09 13:45:00,
2013-05-09 06:50:00,53.6,46.5,30.10,SSE,158,3.3,3.5,77,0.00,,,0.00,WUHU216HW,2013-05-09 13:50:00,
2013-05-09 06:55:00,53.4,46.4,30.10,SW,225,0.0,3.5,77,0.00,,,0.00,WUHU216HW,2013-05-09 13:55:00,
2013-05-09 07:00:00,53.4,46.7,30.10,South,180,0.0,2.4,78,0.00,,,0.00,WUHU216HW,2013-05-09 14:00:00,
2013-05-09 07:05:00,53.4,46.7,30.10,SSW,203,0.0,1.7,78,0.00,,,0.00,WUHU216HW,2013-05-09 14:05:00,
2013-05-09 07:11:00,53.4,46.7,30.10,SSW,203,0.0,5.1,78,0.00,,,0.00,WUHU216HW,2013-05-09 14:11:00,
2013-05-09 07:16:00,53.4,46.7,30.11,SW,225,1.3,5.1,78,0.00,,,0.00,WUHU216HW,2013-05-09 14:16:00,
2013-05-09 07:21:00,53.4,46.7,30.11,SW,225,0.0,2.6,78,0.00,,,0.00,WUHU216HW,2013-05-09 14:21:00,
2013-05-09 07:26:00,53.4,46.7,30.11,SSW,203,0.0,3.8,78,0.00,,,0.00,WUHU216HW,2013-05-09 14:26:00,
2013-05-09 07:31:00,53.2,46.5,30.11,SW,225,6.2,6.2,78,0.00,,,0.00,WUHU216HW,2013-05-09 14:31:00,
2013-05-09 07:36:00,53.2,46.5,30.11,South,180,0.8,6.2,78,0.00,,,0.00,WUHU216HW,2013-05-09 14:36:00,
2013-05-09 07:41:00,53.4,46.7,30.11,SE,135,0.0,2.0,78,0.00,,,0.00,WUHU216HW,2013-05-09 14:41:00,
2013-05-09 07:46:00,53.4,46.7,30.11,SSW,203,0.0,0.8,78,0.00,,,0.00,WUHU216HW,2013-05-09 14:46:00,
2013-05-09 07:51:00,53.4,46.7,30.12,SSW,203,5.3,5.3,78,0.00,,,0.00,WUHU216HW,2013-05-09 14:51:00,
2013-05-09 07:56:00,53.4,46.7,30.12,SW,225,2.6,5.5,78,0.00,,,0.00,WUHU216HW,2013-05-09 14:56:00,
2013-05-09 08:02:00,53.2,46.5,30.12,ESE,113,1.5,5.5,78,0.00,,,0.00,WUHU216HW,2013-05-09 15:02:00,
2013-05-09 08:07:00,53.2,46.5,30.12,SW,225,0.0,3.8,78,0.00,,,0.00,WUHU216HW,2013-05-09 15:07:00,
2013-05-09 08:12:00,53.2,46.5,30.12,SSW,203,0.0,1.7,78,0.00,,,0.00,WUHU216HW,2013-05-09 15:12:00,
2013-05-09 08:17:00,53.2,46.5,30.12,SSW,203,12.5,12.5,78,0.00,,,0.00,WUHU216HW,2013-05-09 15:17:00,
2013-05-09 08:22:00,53.4,46.7,30.12,SSW,203,0.0,12.5,78,0.00,,,0.00,WUHU216HW,2013-05-09 15:22:00,
2013-05-09 08:27:00,53.4,46.7,30.12,SSW,203,6.4,12.5,78,0.00,,,0.00,WUHU216HW,2013-05-09 15:27:00,
2013-05-09 08:32:00,53.6,46.9,30.13,South,180,1.1,6.4,78,0.00,,,0.00,WUHU216HW,2013-05-09 15:32:00,
2013-05-09 08:37:00,53.7,47.1,30.13,WSW,248,0.8,7.6,78,0.00,,,0.00,WUHU216HW,2013-05-09 15:37:00,
2013-05-09 08:42:00,53.7,46.7,30.13,South,180,0.0,7.6,77,0.00,,,0.00,WUHU216HW,2013-05-09 15:42:00,
2013-05-09 08:48:00,53.9,46.9,30.13,SSE,158,2.0,6.0,77,0.00,,,0.00,WUHU216HW,2013-05-09 15:48:00,
2013-05-09 08:53:00,53.9,46.9,30.14,South,180,4.9,6.2,77,0.00,,,0.00,WUHU216HW,2013-05-09 15:53:00,
2013-05-09 08:58:00,54.1,47.0,30.14,SSE,158,0.0,6.2,77,0.00,,,0.00,WUHU216HW,2013-05-09 15:58:00,
2013-05-09 09:03:00,54.1,47.0,30.13,SSW,203,3.5,4.9,77,0.00,,,0.00,WUHU216HW,2013-05-09 16:03:00,
2013-05-09 09:08:00,54.3,47.2,30.14,West,270,0.0,4.6,77,0.00,,,0.00,WUHU216HW,2013-05-09 16:08:00,
2013-05-09 09:13:00,54.3,47.2,30.13,SW,225,6.0,6.0,77,0.00,,,0.00,WUHU216HW,2013-05-09 16:13:00,
2013-05-09 09:18:00,54.3,47.2,30.14,SSW,203,0.0,6.0,77,0.00,,,0.00,WUHU216HW,2013-05-09 16:18:00,
2013-05-09 09:23:00,54.6,47.2,30.14,SW,225,1.1,6.0,76,0.00,,,0.00,WUHU216HW,2013-05-09 16:23:00,
2013-05-09 09:28:00,54.6,47.2,30.14,SSE,158,3.8,3.8,76,0.00,,,0.00,WUHU216HW,2013-05-09 16:28:00,
2013-05-09 09:34:00,54.8,47.3,30.14,South,180,0.0,3.8,76,0.00,,,0.00,WUHU216HW,2013-05-09 16:34:00,
2013-05-09 09:39:00,55.0,47.5,30.14,SE,135,6.4,6.4,76,0.00,,,0.00,WUHU216HW,2013-05-09 16:39:00,
2013-05-09 09:44:00,55.2,47.7,30.14,West,270,0.0,6.4,76,0.00,,,0.00,WUHU216HW,2013-05-09 16:44:00,
2013-05-09 09:49:00,55.5,47.7,30.14,SSE,158,2.6,6.2,75,0.00,,,0.00,WUHU216HW,2013-05-09 16:49:00,
2013-05-09 09:54:00,55.7,47.9,30.14,SE,135,0.0,6.2,75,0.00,,,0.00,WUHU216HW,2013-05-09 16:54:00,
2013-05-09 09:59:00,55.9,48.0,30.14,South,180,4.2,4.2,75,0.00,,,0.00,WUHU216HW,2013-05-09 16:59:00,
2013-05-09 10:04:00,56.3,48.0,30.14,SSW,203,2.0,4.6,74,0.00,,,0.00,WUHU216HW,2013-05-09 17:04:00,
2013-05-09 10:09:00,56.3,47.7,30.14,SE,135,7.3,7.3,73,0.00,,,0.00,WUHU216HW,2013-05-09 17:09:00,
2013-05-09 10:14:00,56.3,47.7,30.14,SE,135,2.2,7.3,73,0.00,,,0.00,WUHU216HW,2013-05-09 17:14:00,
2013-05-09 10:19:00,56.4,47.8,30.14,WSW,248,2.0,9.1,73,0.00,,,0.00,WUHU216HW,2013-05-09 17:19:00,
2013-05-09 10:25:00,56.8,48.2,30.14,SSW,203,4.6,9.1,73,0.00,,,0.00,WUHU216HW,2013-05-09 17:25:00,
2013-05-09 10:30:00,57.0,48.3,30.14,SSE,158,5.1,5.5,73,0.00,,,0.00,WUHU216HW,2013-05-09 17:30:00,
2013-05-09 10:35:00,57.3,48.3,30.14,SSE,158,5.3,5.5,72,0.00,,,0.00,WUHU216HW,2013-05-09 17:35:00,
2013-05-09 10:40:00,57.3,48.3,30.14,SSE,158,3.3,5.3,72,0.00,,,0.00,WUHU216HW,2013-05-09 17:40:00,
2013-05-09 10:45:00,57.5,48.5,30.14,SSE,158,2.9,5.3,72,0.00,,,0.00,WUHU216HW,2013-05-09 17:45:00,
2013-05-09 10:50:00,57.5,48.2,30.14,SW,225,4.0,5.8,71,0.00,,,0.00,WUHU216HW,2013-05-09 17:50:00,
2013-05-09 10:55:00,57.7,48.3,30.14,SSW,203,7.3,8.5,71,0.00,,,0.00,WUHU216HW,2013-05-09 17:55:00,
2013-05-09 11:00:00,57.5,48.2,30.14,SW,225,6.2,8.5,71,0.00,,,0.00,WUHU216HW,2013-05-09 18:00:00,
2013-05-09 11:05:00,57.7,48.3,30.14,SSW,203,0.0,7.3,71,0.00,,,0.00,WUHU216HW,2013-05-09 18:05:00,
2013-05-09 11:10:00,57.9,48.5,30.14,WNW,293,0.0,6.2,71,0.00,,,0.00,WUHU216HW,2013-05-09 18:10:00,
2013-05-09 11:15:00,58.2,48.9,30.14,SSE,158,8.7,8.7,71,0.00,,,0.00,WUHU216HW,2013-05-09 18:15:00,
2013-05-09 11:21:00,58.2,48.9,30.14,West,270,0.0,8.7,71,0.00,,,0.00,WUHU216HW,2013-05-09 18:21:00,
2013-05-09 11:26:00,58.6,49.2,30.14,SSW,203,7.3,7.3,71,0.00,,,0.00,WUHU216HW,2013-05-09 18:26:00,
2013-05-09 11:31:00,58.8,49.4,30.14,SSW,203,6.0,7.3,71,0.00,,,0.00,WUHU216HW,2013-05-09 18:31:00,
2013-05-09 11:36:00,58.8,49.1,30.14,SW,225,8.5,8.5,70,0.00,,,0.00,WUHU216HW,2013-05-09 18:36:00,
2013-05-09 11:41:00,59.0,49.2,30.14,SW,225,9.1,9.1,70,0.00,,,0.00,WUHU216HW,2013-05-09 18:41:00,
2013-05-09 11:46:00,59.3,49.6,30.14,SE,135,12.5,12.5,70,0.00,,,0.00,WUHU216HW,2013-05-09 18:46:00,
2013-05-09 11:51:00,59.5,49.4,30.14,SSE,158,6.0,12.7,69,0.00,,,0.00,WUHU216HW,2013-05-09 18:51:00,
2013-05-09 11:56:00,59.5,49.4,30.14,SW,225,8.7,12.7,69,0.00,,,0.00,WUHU216HW,2013-05-09 18:56:00,
2013-05-09 12:01:00,59.5,49.4,30.14,South,180,2.2,8.7,69,0.00,,,0.00,WUHU216HW,2013-05-09 19:01:00,
2013-05-09 12:06:00,59.7,49.5,30.14,South,180,2.4,7.8,69,0.00,,,0.00,WUHU216HW,2013-05-09 19:06:00,
2013-05-09 12:11:00,59.9,49.7,30.14,SSW,203,4.0,7.8,69,0.00,,,0.00,WUHU216HW,2013-05-09 19:11:00,
2013-05-09 12:17:00,60.2,50.1,30.14,WSW,248,2.4,9.6,69,0.00,,,0.00,WUHU216HW,2013-05-09 19:17:00,
2013-05-09 12:22:00,60.6,50.4,30.14,ESE,113,3.8,9.6,69,0.00,,,0.00,WUHU216HW,2013-05-09 19:22:00,
2013-05-09 12:27:00,60.9,50.4,30.14,SSE,158,3.8,5.8,68,0.00,,,0.00,WUHU216HW,2013-05-09 19:27:00,
2013-05-09 12:32:00,61.3,50.3,30.14,SSE,158,6.7,6.7,67,0.00,,,0.00,WUHU216HW,2013-05-09 19:32:00,
2013-05-09 12:37:00,61.3,50.3,30.14,SSE,158,4.0,9.6,67,0.00,,,0.00,WUHU216HW,2013-05-09 19:37:00,
2013-05-09 12:42:00,61.3,50.3,30.13,SE,135,5.3,9.6,67,0.00,,,0.00,WUHU216HW,2013-05-09 19:42:00,
2013-05-09 12:47:00,61.3,50.3,30.13,West,270,6.2,6.2,67,0.00,,,0.00,WUHU216HW,2013-05-09 19:47:00,
2013-05-09 12:52:00,61.3,50.3,30.14,ESE,113,7.1,9.8,67,0.00,,,0.00,WUHU216HW,2013-05-09 19:52:00,
2013-05-09 12:57:00,61.5,50.4,30.14,South,180,7.8,9.8,67,0.00,,,0.00,WUHU216HW,2013-05-09 19:57:00,
2013-05-09 13:02:00,61.5,50.4,30.14,SSE,158,6.7,7.8,67,0.00,,,0.00,WUHU216HW,2013-05-09 20:02:00,
2013-05-09 13:08:00,61.8,50.8,30.14,SE,135,6.4,6.7,67,0.00,,,0.00,WUHU216HW,2013-05-09 20:08:00,
2013-05-09 13:13:00,62.2,50.7,30.14,SSE,158,8.2,8.2,66,0.00,,,0.00,WUHU216HW,2013-05-09 20:13:00,
2013-05-09 13:18:00,62.4,50.8,30.14,SSE,158,4.2,10.2,66,0.00,,,0.00,WUHU216HW,2013-05-09 20:18:00,
2013-05-09 13:23:00,62.7,51.2,30.14,SE,135,6.4,10.2,66,0.00,,,0.00,WUHU216HW,2013-05-09 20:23:00,
2013-05-09 13:29:00,62.7,51.2,30.14,SE,135,6.4,10.2,66,0.00,,,0.00,WUHU216HW,2013-05-09 20:29:00,
2013-05-09 13:35:00,63.5,51.4,30.14,SSW,203,1.7,6.4,65,0.00,,,0.00,WUHU216HW,2013-05-09 20:35:00,
2013-05-09 13:40:00,64.0,51.5,30.13,South,180,4.9,9.1,64,0.00,,,0.00,WUHU216HW,2013-05-09 20:40:00,
2013-05-09 13:45:00,64.0,51.5,30.13,SSE,158,6.7,9.1,64,0.00,,,0.00,WUHU216HW,2013-05-09 20:45:00,
2013-05-09 13:50:00,64.0,51.1,30.13,SSW,203,2.4,6.7,63,0.00,,,0.00,WUHU216HW,2013-05-09 20:50:00,
2013-05-09 13:55:00,64.0,51.5,30.13,SW,225,0.0,5.3,64,0.00,,,0.00,WUHU216HW,2013-05-09 20:55:00,
2013-05-09 14:00:00,64.0,51.1,30.13,SSE,158,0.0,5.3,63,0.00,,,0.00,WUHU216HW,2013-05-09 21:00:00,
2013-05-09 14:05:00,64.0,51.1,30.13,SE,135,1.1,5.8,63,0.00,,,0.00,WUHU216HW,2013-05-09 21:05:00,
2013-05-09 14:10:00,64.2,51.2,30.12,SW,225,0.0,5.8,63,0.00,,,0.00,WUHU216HW,2013-05-09 21:10:00,
2013-05-09 14:15:00,64.5,51.2,30.13,SE,135,1.1,4.4,62,0.00,,,0.00,WUHU216HW,2013-05-09 21:15:00,
2013-05-09 14:20:00,64.9,51.5,30.13,SSE,158,6.2,7.3,62,0.00,,,0.00,WUHU216HW,2013-05-09 21:20:00,
2013-05-09 14:25:00,65.1,51.3,30.13,SE,135,5.1,9.1,61,0.00,,,0.00,WUHU216HW,2013-05-09 21:25:00,
2013-05-09 14:30:00,65.1,51.3,30.13,SSE,158,6.4,9.1,61,0.00,,,0.00,WUHU216HW,2013-05-09 21:30:00,
2013-05-09 14:36:00,65.3,51.4,30.13,SSE,158,9.3,9.3,61,0.00,,,0.00,WUHU216HW,2013-05-09 21:36:00,
2013-05-09 14:41:00,65.4,51.6,30.13,SE,135,3.8,9.3,61,0.00,,,0.00,WUHU216HW,2013-05-09 21:41:00,
2013-05-09 14:46:00,65.4,51.2,30.13,South,180,10.7,10.7,60,0.00,,,0.00,WUHU216HW,2013-05-09 21:46:00,
2013-05-09 14:51:00,65.1,50.9,30.12,WSW,248,0.0,10.7,60,0.00,,,0.00,WUHU216HW,2013-05-09 21:51:00,
2013-05-09 14:56:00,64.9,51.1,30.12,ESE,113,1.1,10.7,61,0.00,,,0.00,WUHU216HW,2013-05-09 21:56:00,
2013-05-09 15:01:00,64.9,51.1,30.12,South,180,2.4,9.1,61,0.00,,,0.00,WUHU216HW,2013-05-09 22:01:00,
2013-05-09 15:06:00,65.4,51.6,30.12,SW,225,10.2,10.2,61,0.00,,,0.00,WUHU216HW,2013-05-09 22:06:00,
2013-05-09 15:11:00,65.4,51.2,30.12,SSE,158,4.2,10.2,60,0.00,,,0.00,WUHU216HW,2013-05-09 22:11:00,
2013-05-09 15:16:00,65.3,51.0,30.12,SSW,203,6.2,10.2,60,0.00,,,0.00,WUHU216HW,2013-05-09 22:16:00,
2013-05-09 15:21:00,65.4,51.6,30.11,SW,225,1.3,8.5,61,0.00,,,0.00,WUHU216HW,2013-05-09 22:21:00,
2013-05-09 15:26:00,65.8,52.0,30.12,South,180,1.7,2.9,61,0.00,,,0.00,WUHU216HW,2013-05-09 22:26:00,
2013-05-09 15:32:00,66.0,51.8,30.11,West,270,0.0,10.5,60,0.00,,,0.00,WUHU216HW,2013-05-09 22:32:00,
2013-05-09 15:37:00,66.0,51.8,30.11,SSW,203,1.5,10.5,60,0.00,,,0.00,WUHU216HW,2013-05-09 22:37:00,
2013-05-09 15:42:00,66.0,51.8,30.11,SSW,203,0.0,3.1,60,0.00,,,0.00,WUHU216HW,2013-05-09 22:42:00,
2013-05-09 15:47:00,65.8,51.6,30.10,SSE,158,0.0,2.0,60,0.00,,,0.00,WUHU216HW,2013-05-09 22:47:00,
2013-05-09 15:52:00,66.0,51.8,30.10,SSE,158,0.0,8.7,60,0.00,,,0.00,WUHU216HW,2013-05-09 22:52:00,
2013-05-09 15:57:00,66.0,51.8,30.10,South,180,0.0,8.7,60,0.00,,,0.00,WUHU216HW,2013-05-09 22:57:00,
2013-05-09 16:02:00,66.0,51.8,30.10,South,180,0.0,2.0,60,0.00,,,0.00,WUHU216HW,2013-05-09 23:02:00,
2013-05-09 16:07:00,65.8,51.6,30.10,SW,225,8.7,8.7,60,0.00,,,0.00,WUHU216HW,2013-05-09 23:07:00,
2013-05-09 16:12:00,65.4,51.2,30.10,WSW,248,4.0,8.7,60,0.00,,,0.00,WUHU216HW,2013-05-09 23:12:00,
2013-05-09 16:18:00,65.8,51.6,30.10,SSW,203,1.3,6.9,60,0.00,,,0.00,WUHU216HW,2013-05-09 23:18:00,
2013-05-09 16:23:00,65.4,51.2,30.10,SSE,158,3.1,6.9,60,0.00,,,0.00,WUHU216HW,2013-05-09 23:23:00,
2013-05-09 16:28:00,65.4,51.2,30.10,WSW,248,3.3,4.0,60,0.00,,,0.00,WUHU216HW,2013-05-09 23:28:00,
2013-05-09 16:33:00,65.3,51.0,30.10,SSE,158,4.2,4.2,60,0.00,,,0.00,WUHU216HW,2013-05-09 23:33:00,
2013-05-09 16:38:00,64.9,50.7,30.09,SSE,158,7.3,7.3,60,0.00,,,0.00,WUHU216HW,2013-05-09 23:38:00,
2013-05-09 16:43:00,64.7,50.5,30.10,SSE,158,2.6,7.3,60,0.00,,,0.00,WUHU216HW,2013-05-09 23:43:00,
2013-05-09 16:48:00,64.5,50.7,30.10,SE,135,3.8,7.3,61,0.00,,,0.00,WUHU216HW,2013-05-09 23:48:00,
2013-05-09 16:53:00,64.4,50.6,30.09,SSE,158,0.0,6.2,61,0.00,,,0.00,WUHU216HW,2013-05-09 23:53:00,
2013-05-09 16:58:00,64.2,50.4,30.09,SE,135,7.1,7.3,61,0.00,,,0.00,WUHU216HW,2013-05-09 23:58:00,
2013-05-09 17:03:00,64.0,50.4,30.09,SE,135,4.4,7.3,61,0.00,,,0.00,WUHU216HW,2013-05-10 00:03:00,
2013-05-09 17:08:00,64.0,50.7,30.09,SW,225,1.7,4.4,62,0.00,,,0.00,WUHU216HW,2013-05-10 00:08:00,
2013-05-09 17:13:00,64.0,50.7,30.09,SE,135,7.6,7.6,62,0.00,,,0.00,WUHU216HW,2013-05-10 00:13:00,
2013-05-09 17:19:00,63.6,50.7,30.09,SSW,203,1.5,7.6,62,0.00,,,0.00,WUHU216HW,2013-05-10 00:19:00,
2013-05-09 17:24:00,63.6,50.3,30.09,WSW,248,2.9,6.4,62,0.00,,,0.00,WUHU216HW,2013-05-10 00:24:00,
2013-05-09 17:29:00,63.3,50.0,30.09,South,180,0.0,6.2,62,0.00,,,0.00,WUHU216HW,2013-05-10 00:29:00,
2013-05-09 17:34:00,63.3,50.4,30.09,SW,225,5.5,7.3,63,0.00,,,0.00,WUHU216HW,2013-05-10 00:34:00,
2013-05-09 17:39:00,63.1,50.2,30.09,SSE,158,5.3,7.3,63,0.00,,,0.00,WUHU216HW,2013-05-10 00:39:00,
2013-05-09 17:44:00,62.6,49.8,30.09,SSE,158,3.3,5.5,63,0.00,,,0.00,WUHU216HW,2013-05-10 00:44:00,
2013-05-09 17:49:00,62.4,50.0,30.09,WSW,248,6.0,6.0,64,0.00,,,0.00,WUHU216HW,2013-05-10 00:49:00,
2013-05-09 17:54:00,62.2,49.8,30.09,ESE,113,0.8,6.0,64,0.00,,,0.00,WUHU216HW,2013-05-10 00:54:00,
2013-05-09 17:59:00,62.2,50.3,30.09,SW,225,5.5,6.0,65,0.00,,,0.00,WUHU216HW,2013-05-10 00:59:00,
2013-05-09 18:05:00,61.8,49.9,30.09,South,180,2.9,5.5,65,0.00,,,0.00,WUHU216HW,2013-05-10 01:05:00,
2013-05-09 18:10:00,61.7,49.4,30.09,SSE,158,6.2,6.2,64,0.00,,,0.00,WUHU216HW,2013-05-10 01:10:00,
2013-05-09 18:15:00,61.3,49.9,30.10,SE,135,5.1,6.2,66,0.00,,,0.00,WUHU216HW,2013-05-10 01:15:00,
2013-05-09 18:20:00,61.1,50.1,30.10,SW,225,10.7,10.7,67,0.00,,,0.00,WUHU216HW,2013-05-10 01:20:00,
2013-05-09 18:25:00,60.6,49.2,30.10,SE,135,0.6,10.7,66,0.00,,,0.00,WUHU216HW,2013-05-10 01:25:00,
2013-05-09 18:30:00,60.6,49.2,30.10,SSW,203,2.0,6.7,66,0.00,,,0.00,WUHU216HW,2013-05-10 01:30:00,
2013-05-09 18:35:00,60.4,49.4,30.10,SSE,158,1.5,2.0,67,0.00,,,0.00,WUHU216HW,2013-05-10 01:35:00,
2013-05-09 18:40:00,60.4,49.4,30.10,South,180,8.5,8.5,67,0.00,,,0.00,WUHU216HW,2013-05-10 01:40:00,
2013-05-09 18:45:00,60.0,49.5,30.10,SSE,158,0.0,8.5,68,0.00,,,0.00,WUHU216HW,2013-05-10 01:45:00,
2013-05-09 18:51:00,59.9,49.3,30.10,SSE,158,2.2,8.5,68,0.00,,,0.00,WUHU216HW,2013-05-10 01:51:00,
2013-05-09 18:56:00,59.1,49.0,30.10,SSE,158,0.0,4.9,69,0.00,,,0.00,WUHU216HW,2013-05-10 01:56:00,
2013-05-09 19:01:00,58.8,48.6,30.10,South,180,3.3,3.3,69,0.00,,,0.00,WUHU216HW,2013-05-10 02:01:00,
2013-05-09 19:06:00,58.2,48.5,30.11,SSE,158,5.8,5.8,70,0.00,,,0.00,WUHU216HW,2013-05-10 02:06:00,
2013-05-09 19:11:00,57.9,48.2,30.11,SSE,158,4.0,5.8,70,0.00,,,0.00,WUHU216HW,2013-05-10 02:11:00,
2013-05-09 19:16:00,57.5,48.2,30.11,SSE,158,6.0,6.0,71,0.00,,,0.00,WUHU216HW,2013-05-10 02:16:00,
2013-05-09 19:21:00,57.3,48.0,30.10,NNE,23,0.0,6.0,71,0.00,,,0.00,WUHU216HW,2013-05-10 02:21:00,
2013-05-09 19:26:00,57.2,48.2,30.10,South,180,3.1,6.0,72,0.00,,,0.00,WUHU216HW,2013-05-10 02:26:00,
2013-05-09 19:31:00,57.0,48.0,30.11,East,90,2.2,4.9,72,0.00,,,0.00,WUHU216HW,2013-05-10 02:31:00,
2013-05-09 19:36:00,56.8,48.2,30.10,SSE,158,2.6,4.9,73,0.00,,,0.00,WUHU216HW,2013-05-10 02:36:00,
2013-05-09 19:41:00,56.8,48.2,30.11,SSE,158,6.2,6.2,73,0.00,,,0.00,WUHU216HW,2013-05-10 02:41:00,
2013-05-09 19:46:00,56.4,47.8,30.11,SSE,158,5.5,6.2,73,0.00,,,0.00,WUHU216HW,2013-05-10 02:46:00,
2013-05-09 19:51:00,56.4,47.8,30.11,SE,135,5.5,5.5,73,0.00,,,0.00,WUHU216HW,2013-05-10 02:51:00,
2013-05-09 19:57:00,56.4,47.8,30.11,ESE,113,5.8,5.8,73,0.00,,,0.00,WUHU216HW,2013-05-10 02:57:00,
2013-05-09 20:02:00,56.3,47.7,30.12,South,180,2.4,5.8,73,0.00,,,0.00,WUHU216HW,2013-05-10 03:02:00,
2013-05-09 20:07:00,56.1,47.5,30.12,South,180,2.0,4.6,73,0.00,,,0.00,WUHU216HW,2013-05-10 03:07:00,
2013-05-09 20:12:00,55.9,47.7,30.12,SE,135,0.0,2.4,74,0.00,,,0.00,WUHU216HW,2013-05-10 03:12:00,
2013-05-09 20:17:00,55.9,47.7,30.12,ESE,113,0.0,6.0,74,0.00,,,0.00,WUHU216HW,2013-05-10 03:17:00,
2013-05-09 20:22:00,55.9,47.7,30.12,SE,135,0.6,6.0,74,0.00,,,0.00,WUHU216HW,2013-05-10 03:22:00,
2013-05-09 20:27:00,55.9,47.7,30.12,SE,135,4.2,4.2,74,0.00,,,0.00,WUHU216HW,2013-05-10 03:27:00,
2013-05-09 20:32:00,55.9,47.7,30.12,ESE,113,3.1,4.2,74,0.00,,,0.00,WUHU216HW,2013-05-10 03:32:00,
2013-05-09 20:37:00,55.7,47.5,30.13,ESE,113,0.0,4.2,74,0.00,,,0.00,WUHU216HW,2013-05-10 03:37:00,
2013-05-09 20:42:00,55.7,47.9,30.13,SE,135,2.6,5.8,75,0.00,,,0.00,WUHU216HW,2013-05-10 03:42:00,
2013-05-09 20:47:00,55.5,47.7,30.13,SSE,158,0.8,5.8,75,0.00,,,0.00,WUHU216HW,2013-05-10 03:47:00,
2013-05-09 20:52:00,55.4,47.5,30.13,ESE,113,2.2,4.9,75,0.00,,,0.00,WUHU216HW,2013-05-10 03:52:00,
2013-05-09 20:58:00,55.4,47.5,30.13,South,180,0.0,3.5,75,0.00,,,0.00,WUHU216HW,2013-05-10 03:58:00,
2013-05-09 21:01:00,55.2,47.3,30.13,ESE,113,0.0,3.5,75,0.00,,,0.00,WUHU216HW,2013-05-10 04:01:00,
2013-05-09 21:02:00,55.2,47.3,30.13,South,180,1.3,2.2,75,0.00,,,0.00,WUHU216HW,2013-05-10 04:02:00,
2013-05-09 21:08:00,55.2,47.7,30.14,South,180,0.0,1.3,76,0.00,,,0.00,WUHU216HW,2013-05-10 04:08:00,
2013-05-09 21:13:00,55.2,47.7,30.14,SSE,158,0.0,6.7,76,0.00,,,0.00,WUHU216HW,2013-05-10 04:13:00,
2013-05-09 21:18:00,55.2,47.7,30.14,SE,135,0.0,6.7,76,0.00,,,0.00,WUHU216HW,2013-05-10 04:18:00,
2013-05-09 21:23:00,55.2,47.7,30.14,SE,135,0.0,2.6,76,0.00,,,0.00,WUHU216HW,2013-05-10 04:23:00,
2013-05-09 21:28:00,55.2,47.7,30.14,SSW,203,0.0,0.0,76,0.00,,,0.00,WUHU216HW,2013-05-10 04:28:00,
2013-05-09 21:33:00,55.0,47.5,30.14,SW,225,0.0,2.6,76,0.00,,,0.00,WUHU216HW,2013-05-10 04:33:00,
2013-05-09 21:38:00,54.8,47.3,30.14,South,180,4.0,4.0,76,0.00,,,0.00,WUHU216HW,2013-05-10 04:38:00,
2013-05-09 21:43:00,54.6,47.2,30.14,SW,225,2.6,4.0,76,0.00,,,0.00,WUHU216HW,2013-05-10 04:43:00,
2013-05-09 21:48:00,54.5,47.4,30.14,ESE,113,0.0,4.0,77,0.00,,,0.00,WUHU216HW,2013-05-10 04:48:00,
2013-05-09 21:53:00,54.3,47.2,30.14,SE,135,0.6,5.8,77,0.00,,,0.00,WUHU216HW,2013-05-10 04:53:00,
2013-05-09 21:58:00,54.3,47.2,30.15,WSW,248,0.0,6.0,77,0.00,,,0.00,WUHU216HW,2013-05-10 04:58:00,
2013-05-09 22:04:00,54.1,47.0,30.15,South,180,0.0,6.2,77,0.00,,,0.00,WUHU216HW,2013-05-10 05:04:00,
2013-05-09 22:09:00,53.7,46.7,30.15,SSW,203,0.0,6.2,77,0.00,,,0.00,WUHU216HW,2013-05-10 05:09:00,
2013-05-09 22:14:00,53.7,46.7,30.15,South,180,3.3,5.8,77,0.00,,,0.00,WUHU216HW,2013-05-10 05:14:00,
2013-05-09 22:19:00,53.4,46.4,30.15,South,180,3.8,5.8,77,0.00,,,0.00,WUHU216HW,2013-05-10 05:19:00,
2013-05-09 22:24:00,53.4,46.4,30.15,SSW,203,2.0,3.8,77,0.00,,,0.00,WUHU216HW,2013-05-10 05:24:00,
2013-05-09 22:29:00,53.2,46.5,30.15,SE,135,3.8,7.6,78,0.00,,,0.00,WUHU216HW,2013-05-10 05:29:00,
2013-05-09 22:34:00,53.2,46.5,30.15,SSE,158,6.4,7.6,78,0.00,,,0.00,WUHU216HW,2013-05-10 05:34:00,
2013-05-09 22:39:00,53.2,46.5,30.15,South,180,2.9,6.4,78,0.00,,,0.00,WUHU216HW,2013-05-10 05:39:00,
2013-05-09 22:44:00,53.0,46.4,30.15,SE,135,5.8,5.8,78,0.00,,,0.00,WUHU216HW,2013-05-10 05:44:00,
2013-05-09 22:49:00,53.2,46.5,30.15,SSW,203,0.0,5.8,78,0.00,,,0.00,WUHU216HW,2013-05-10 05:49:00,
2013-05-09 22:55:00,53.2,46.5,30.15,South,180,3.5,5.8,78,0.00,,,0.00,WUHU216HW,2013-05-10 05:55:00,
2013-05-09 23:00:00,52.8,46.2,30.15,SE,135,4.6,6.9,78,0.00,,,0.00,WUHU216HW,2013-05-10 06:00:00,
2013-05-09 23:05:00,52.7,46.4,30.16,SE,135,2.0,7.3,79,0.00,,,0.00,WUHU216HW,2013-05-10 06:05:00,
2013-05-09 23:10:00,52.7,46.4,30.16,South,180,6.9,7.3,79,0.00,,,0.00,WUHU216HW,2013-05-10 06:10:00,
2013-05-09 23:15:00,52.7,46.7,30.16,SE,135,2.0,6.9,80,0.00,,,0.00,WUHU216HW,2013-05-10 06:15:00,
2013-05-09 23:20:00,52.7,46.7,30.16,SSE,158,6.7,6.9,80,0.00,,,0.00,WUHU216HW,2013-05-10 06:20:00,
2013-05-09 23:25:00,52.5,46.5,30.16,East,90,4.6,6.7,80,0.00,,,0.00,WUHU216HW,2013-05-10 06:25:00,
2013-05-09 23:30:00,52.5,46.5,30.16,SSE,158,2.6,6.7,80,0.00,,,0.00,WUHU216HW,2013-05-10 06:30:00,
2013-05-09 23:35:00,52.3,46.4,30.16,South,180,4.0,5.5,80,0.00,,,0.00,WUHU216HW,2013-05-10 06:35:00,
2013-05-09 23:45:00,52.3,46.4,30.16,SSE,158,8.5,8.5,80,0.00,,,0.00,WUHU216HW,2013-05-10 06:45:00,
2013-05-09 23:50:00,52.1,46.2,30.16,SE,135,0.6,8.5,80,0.00,,,0.00,WUHU216HW,2013-05-10 06:50:00,
2013-05-09 23:55:00,52.1,46.2,30.16,SE,135,4.0,4.9,80,0.00,,,0.00,WUHU216HW,2013-05-10 06:55:00,